Location: Amarillo Post Office Jordan Station
(35.1907°N, 101.9342°W)
Time: 12:48:49
(UTC+00:00)

Cosmos 2297 - Pass Details

Date: 24 January 2021
Orbit: 834 x 860 km, 71.0° (Epoch: 04 March)

Event Time Altitude Azimuth Distance (km) Brightness Sun altitude
Rises 13:17:24 0° 336° (NNW) 3,440 6.5 -7.4°
Reaches altitude 10° 13:19:52 10° 335° (NNW) 2,501 5.8 -7.0°
Maximum altitude 13:25:36 75° 252° (WSW) 889 3.8 -5.8°
Drops below altitude 10° 13:31:18 10° 167° (SSE) 2,482 6.6 -4.7°
Sets 13:33:45 0° 165° (SSE) 3,412 7.4 -4.3°
